Location: *
(38.9555°S, 57.3572°E)
Time: 01:56:21
(UTC+00:00)

Aureole 3 Rocket - Pass Details

Date: 15 July 2020
Orbit: 399 x 1740 km, 82.5° (Epoch: 06 August)

Event Time Altitude Azimuth Distance (km) Brightness Sun altitude
Rises 13:32:58 0° 22° (NNE) 3,469 6.9 -5.3°
Reaches altitude 10° 13:36:07 10° 35° (NE) 2,297 5.9 -5.8°
Maximum altitude 13:39:59 23° 86° (E) 1,368 4.3 -6.5°
Drops below altitude 10° 13:43:07 10° 139° (SE) 1,828 4.9 -7.1°
Enters shadow 13:44:27 - 149° (SSE) 2,274 5.5 -7.3°
